Location: Newark
(13.6797°N, 8.5297°E)
Time: 02:11:50
(UTC+00:00)

Vanguard 1 - All Passes

Search period start: 26 January 2020 00:00
Search period end: 05 February 2020 00:00
Orbit: 651 x 3833 km, 34.2° (Epoch: 25 January)

Date Brightness Start Highest point End Pass type
(mag) Time Alt. Az. Time Alt. Az. Time Alt. Az.
26 Jan - 00:36:31 10° W 00:47:49 36° SSW 01:05:39 10° SSE visible
26 Jan - 03:10:09 10° SW 03:17:07 12° SSW 03:24:44 10° S visible
26 Jan - 10:45:54 10° SSW 10:55:07 25° SSE 11:01:04 10° E daylight
26 Jan - 13:08:53 10° WSW 13:16:59 76° NW 13:21:57 10° NE daylight
26 Jan - 15:36:06 10° NW 15:37:31 11° NNW 15:38:53 10° N daylight
26 Jan - 20:16:53 10° NNW 20:22:44 35° NNE 20:32:26 10° E visible
26 Jan - 22:35:45 10° WNW 22:44:32 71° SSW 23:01:22 10° SE visible
27 Jan - 00:59:01 10° W 01:09:56 27° SSW 01:25:53 10° SSE visible
27 Jan - 08:47:22 10° S 08:51:33 11° SSE 08:55:10 10° SE daylight
27 Jan - 11:06:13 10° SSW 11:16:43 37° SSE 11:22:55 10° E daylight
27 Jan - 13:30:37 10° WSW 13:37:53 47° NW 13:42:37 10° NE daylight
27 Jan - 18:21:57 10° NNE 18:22:16 10° NNE 18:22:36 10° NNE visible
27 Jan - 20:37:25 10° NW 20:43:44 49° NE 20:55:02 10° ESE visible
27 Jan - 22:56:58 10° WNW 23:05:58 53° SSW 23:22:34 10° SE visible
28 Jan - 01:22:23 10° WSW 01:32:19 20° SSW 01:45:37 10° SSE visible
28 Jan - 09:05:12 10° S 09:13:55 17° SSE 09:20:20 10° ESE daylight
28 Jan - 11:27:00 10° SW 11:38:07 54° SSE 11:44:17 10° ENE daylight
28 Jan - 13:52:47 10° W 13:58:48 29° NNW 14:03:05 10° NNE daylight
28 Jan - 18:40:48 10° N 18:43:42 14° NNE 18:47:11 10° ENE visible
28 Jan - 20:58:05 10° NW 21:04:43 68° NE 21:17:14 10° ESE night (unlit)
28 Jan - 23:18:30 10° W 23:27:37 40° SSW 23:43:24 10° SSE visible
29 Jan - 01:47:15 10° SW 01:55:03 14° SSW 02:04:28 10° S visible
29 Jan - 09:24:43 10° SSW 09:36:01 24° SSE 09:43:25 10° ESE daylight
29 Jan - 11:48:12 10° SW 11:59:19 78° SSE 12:05:22 10° ENE daylight
29 Jan - 14:15:21 10° WNW 14:19:50 19° NNW 14:23:22 10° NNE daylight
29 Jan - 19:00:53 10° NNW 19:04:56 21° NNE 19:10:24 10° ENE visible
29 Jan - 21:18:53 10° WNW 21:25:46 87° SW 21:39:01 10° SE night (unlit)
29 Jan - 23:40:29 10° W 23:49:29 30° SSW 00:03:51 10° SSE visible
30 Jan - 07:26:15 10° S 07:30:47 11° SSE 07:34:50 10° SE daylight
30 Jan - 09:44:53 10° SSW 09:57:53 33° SSE 10:05:37 10° E daylight
30 Jan - 12:09:46 10° WSW 12:20:21 73° NW 12:26:12 10° NE daylight
30 Jan - 14:38:32 10° NW 14:41:02 13° NNW 14:43:16 10° N daylight
30 Jan - 19:21:13 10° NNW 19:25:58 30° NNE 19:33:10 10° E visible
30 Jan - 21:39:52 10° WNW 21:46:59 63° SSW 22:00:26 10° SE night (unlit)
31 Jan - 00:03:09 10° WSW 00:11:35 22° SSW 00:23:49 10° SSE visible
31 Jan - 07:43:37 10° S 07:53:36 16° SSE 08:01:16 10° ESE daylight
31 Jan - 10:05:30 10° SW 10:19:32 46° SSE 10:27:17 10° ENE daylight
31 Jan - 12:31:45 10° WSW 12:41:17 49° NW 12:46:51 10° NE daylight
31 Jan - 19:41:41 10° NW 19:46:55 45° NE 19:55:32 10° ESE visible
31 Jan - 22:01:08 10° WNW 22:08:23 45° SSW 22:21:27 10° SE night (unlit)
01 Feb - 00:26:57 10° SW 00:33:57 16° SSW 00:43:02 10° S visible
01 Feb - 08:02:56 10° SSW 08:16:01 22° SSE 08:25:04 10° ESE daylight
01 Feb - 10:26:32 10° SW 10:40:58 63° SSE 10:48:34 10° ENE daylight
01 Feb - 12:54:08 10° W 13:02:14 33° NW 13:07:22 10° NNE daylight
01 Feb - 17:45:35 10° N 17:47:10 11° NNE 17:48:52 10° NE visible
01 Feb - 20:02:19 10° NW 20:07:49 69° NE 20:17:30 10° ESE visible
01 Feb - 22:22:46 10° W 22:30:00 32° SSW 22:42:03 10° SSE visible
02 Feb - 00:53:51 10° SSW 00:56:41 11° SSW 00:59:47 10° S visible
02 Feb - 06:07:25 10° SSE 06:08:59 10° SSE 06:10:29 10° SSE daylight
02 Feb - 08:22:55 10° SSW 08:38:09 30° SSE 08:47:46 10° E daylight
02 Feb - 10:47:56 10° SW 11:02:13 85° SE 11:09:35 10° ENE daylight
02 Feb - 13:16:53 10° W 13:23:16 23° NNW 13:27:44 10° NNE daylight
02 Feb - 18:05:14 10° NNW 18:08:24 17° NNE 18:12:14 10° ENE visible
02 Feb - 20:23:07 10° WNW 20:28:50 80° SSW 20:39:04 10° SE visible
02 Feb - 22:44:58 10° WSW 22:51:47 23° SSW 23:02:10 10° SSE visible
03 Feb - 06:22:16 10° S 06:32:15 15° SSE 06:40:35 10° SE daylight
03 Feb - 08:43:22 10° SSW 09:00:03 41° SSE 09:09:48 10° E daylight
03 Feb - 11:09:45 10° WSW 11:23:18 71° NW 11:30:25 10° NE daylight
03 Feb - 13:40:02 10° WNW 13:44:29 16° NNW 13:47:57 10° NNE daylight
03 Feb - 18:25:27 10° NNW 18:29:27 27° NNE 18:34:50 10° E visible
03 Feb - 20:44:11 10° WNW 20:49:59 53° SSW 21:00:14 10° SE visible
03 Feb - 23:08:05 10° WSW 23:13:50 16° SSW 23:21:35 10° S visible
04 Feb - 06:41:10 10° SSW 06:55:02 20° SSE 07:05:34 10° ESE daylight
04 Feb - 09:04:11 10° SW 09:21:44 54° SSE 09:31:21 10° ENE daylight
04 Feb - 11:31:57 10° WSW 11:44:20 52° NW 11:51:05 10° NE daylight
04 Feb - 14:03:42 10° NW 14:05:53 12° NNW 14:07:48 10° N daylight
04 Feb - 18:45:53 10° NW 18:50:24 43° NE 18:56:58 10° ESE visible
04 Feb - 21:05:33 10° W 21:11:20 36° SSW 21:20:59 10° SSE visible
04 Feb - 23:33:51 10° SSW 23:36:10 11° SSW 23:38:42 10° S visible
